Reflectivity
-20 -20 -20 1 -20 -20 -20 -10 -3 -3 -9 -20 -20 -20 -20 -20 -20 2 -8 -20 -20 -20 -15 -9 16 -8 -20 -20 -20 -20 -20 -20 -20 -20 -20 -20 -20 -20 -20 -20 -20 -20 15
-20 -20 -20 -11 -20 -20 -1 -6 0 4 -20 -19 -20 -20 -20 -20 -20 -15 -20 -20 -20 -20 -20 -14 -9 -20 -20 -20 -20 -20 -20 -20 -20 -20 -20 -20 -20 -20 -20 -20 -20 -1 -17
-11 -20 -20 -2 -12 -20 -20 -20 -20 -16 14 -5 -20 -20 -20 -20 -20 -1 -20 -20 -20 -20 -20 -20 -20 -20 -20 -20 -20 -20 -20 -20 -20 -20 -20 -20 -20 -20 -20 -20 -20 -20 -20
-20 -20 -20 -4 -14 12 -20 -20 -20 10 -20 -20 -20 -20 -20 -20 -20 13 -20 -20 -20 -20 -20 -20 -20 -20 -20 -20 -20 -20 -20 -20 -20 -20 -20 -20 -20 -17 -20 -20 14 17 -20
-20 -20 -20 8 -20 -20 -20 -20 3 -19 -20 -20 -20 -20 -20 1 -20 10 -1 -20 -20 -20 -20 -20 -20 -20 -20 -20 -20 -20 -20 -20 -20 -20 -20 -20 -20 16 -4 -15 -4 7 -10
-20 -20 -20 -20 -20 -16 -20 -20 8 -20 -20 -20 -20 -20 -14 -8 -20 9 2 -20 -20 -20 -20 -20 -20 -20 -20 -20 -20 -20 -20 -20 -20 -20 -20 -19 -20 16 -3 12 5 13 9
-20 -20 -20 -13 -20 -20 -20 -5 -20 -20 -20 -20 -20 -20 13 9 14 -0 7 -20 -20 -20 -20 -20 -20 -20 -20 -20 -20 -20 -20 -20 -20 -20 -20 -20 -18 12 12 9 -11 -20 -20
-20 -20 -20 -20 -20 -20 -19 -4 -20 -20 -20 -20 -20 -20 10 11 15 13 10 -20 -20 -20 -20 -20 -20 -20 -20 -20 -20 -20 -20 -20 -20 -20 -20 -20 -11 -20 -20 -20 -20 -20 -20
-20 -20 -20 -20 -20 -20 -18 -20 -20 -20 -20 -20 -20 -20 -20 -14 15 16 8 -20 -20 -20 -20 -20 -20 -20 -20 -20 -20 -20 -20 -20 -20 -20 -20 -20 -20 -20 -2 -15 -20 -20 -20
-20 -20 -20 -20 -20 -20 -20 -2 18 7 -20 -20 -20 -20 -20 -20 -20 -20 -10 -20 -20 -20 -20 -20 -20 -20 -20 -20 -20 -20 -20 -20 -20 -20 -20 -20 -18 8 4 -20 -4 -20 -20
-20 -20 -20 -20 -20 -20 -20 4 14 13 -20 -20 -20 -20 -20 -20 -20 -20 -20 -20 -20 -20 -20 -20 -20 -20 -20 -20 -20 -20 -20 -20 -20 -20 -20 -20 -20 14 -9 -20 -20 -20 -20
-20 -20 -20 -20 -20 -20 -20 -20 -1 -19 -20 -20 -20 -20 -20 -20 -20 -20 -20 -20 -20 -9 -20 -20 -20 -20 -20 -20 -20 -20 -20 -20 -20 -20 -20 -20 -20 17 -9 -20 -20 -20 -20
-20 -20 -20 -20 -20 -20 -20 -20 -20 -20 -20 -20 -20 -20 -20 -20 -20 -20 -20 -20 -20 -20 -20 -20 -20 -20 -20 -20 -20 -20 -20 -20 -20 -20 -20 -20 -20 20 -19 -20 -20 -20 -20
-20 -20 -20 -20 -20 -20 -20 -20 -20 -20 -20 -20 -20 -20 -20 -20 -20 -20 -20 -20 -20 -20 -20 -20 -20 -20 -20 -20 -20 -20 -20 -20 -20 -20 -20 -20 -20 9 -20 -20 -20 -20 -20
-20 -20 -20 -20 -20 -20 -20 -20 -20 -20 -20 -20 -20 -20 -20 -20 -20 -20 -20 -20 -20 -20 -20 -20 -20 -20 -20 -20 -20 -20 -20 -20 -20 -20 -20 -20 -20 -20 -15 -20 -20 -20 -20
-20 -20 -20 -20 -20 -20 -20 -20 -20 -20 -20 -20 -20 -20 -20 -20 -20 -20 -20 -20 -20 -20 -20 -20 -20 -20 -20 -20 -20 -20 -20 -20 -20 -20 -20 -20 -20 -20 -20 -20 -20 -20 -12
-20 -20 -20 -20 -20 -20 -20 -20 -20 -20 -20 -20 -20 -20 -20 -20 -20 -20 -20 -20 -20 -20 -20 -20 -20 -20 -20 -20 -20 -20 -20 -20 -20 -20 -20 -20 -20 -20 -20 -20 -20 -20 -20
-20 -20 -20 -20 -20 -20 -20 -20 -20 -20 -20 -20 -20 -20 -20 -20 -20 -20 -20 -20 -20 -20 -20 -20 -20 -20 -20 -20 -20 -20 -20 -20 -20 -20 -20 -20 -20 -20 -20 -20 -20 -20 -20
-20 -20 -20 -20 -20 -20 -20 -20 -20 -20 -20 -20 -20 -20 -20 -20 -20 -20 -20 -20 -20 -20 -20 -20 -20 -20 -20 -20 -20 -20 -20 -20 -20 -20 -20 -20 -20 -20 -20 -20 -20 -20 -20
-20 -20 -20 -20 -20 -20 -20 -20 -20 -20 -20 -20 -20 -20 -20 -20 -20 -20 -20 -20 -20 -20 -20 -20 -20 -20 -20 -20 -20 -20 -20 -20 -20 -20 -20 -20 -20 -20 -20 -20 -20 -20 -20
-20 -20 -20 -20 -20 -20 -20 -20 -20 -20 -20 -20 -20 -20 -20 -20 -20 -20 -20 -20 -20 -20 -20 -20 -20 -20 -20 -20 -17 -20 -20 -20 -20 -20 -20 20 -20 -20 -20 -20 5 -20 -20
-20 -20 -20 -20 -20 -20 -20 -20 -20 -20 -20 -20 -20 -20 -20 -20 -20 -20 -20 -20 -20 -20 -20 -20 -20 -20 -20 -20 -20 -20 -20 -18 -20 -20 -20 -20 -20 -20 -20 -20 -20 -20 -20
-20 -20 -20 -20 -20 -20 -20 -20 -20 -20 -20 -20 -20 -20 -20 -20 -20 -20 -20 -20 -20 -20 -20 -20 -20 -20 -15 -20 -20 -10 -20 -13 -18 -20 -20 -20 -20 -20 -20 -20 -20 -20 -20
-20 -20 -20 -20 -20 -20 -20 -20 -20 -20 -20 -20 -20 -20 -20 -20 -20 -20 -20 -20 -20 -20 -20 -20 -20 -20 -0 -20 -20 -20 -20 -20 -10 -19 -6 -14 -18 -20 -20 -20 -20 -20 -20
-20 -20 -20 -20 -20 -20 -20 -20 -20 -20 -20 -20 -20 -20 -20 -20 -20 -20 -20 -20 -20 -20 -20 -20 -20 -20 -20 1 -20 -20 -8 -6 1 16 8 9 -19 -15 -20 -20 -20 -20 -20
-20 -20 -20 -20 -20 -20 -20 -20 -20 -20 -20 -20 -20 -20 -20 -20 -20 -20 -20 -20 -20 -4 9 9 -19 -17 -20 -20 -20 -2 -20 -19 -11 -10 11 -20 -20 -20 -20 -20 -18 -20 -20
Wind_Speed
5 8 16 15 14 14 13 13 14 13 13 13 13 12 12 11 12 14 15 14 13 11 11 11 11 11 13 16 15 14 14 14 13 12 12 12 11 11 10 8 7 4 4
10 9 17 15 15 14 13 12 12 13 12 11 11 11 10 10 11 12 14 13 12 11 11 11 11 11 13 14 14 14 13 13 13 11 10 8 7 9 9 8 7 7 13
13 10 12 15 14 14 13 13 12 12 12 12 10 9 9 10 11 12 14 12 12 11 10 10 10 11 11 12 12 12 11 11 10 9 8 3 2 7 8 7 7 5 6
11 8 9 15 14 14 14 14 13 13 13 11 10 9 8 10 11 11 14 11 11 11 11 11 11 10 10 10 9 8 6 5 6 8 5 4 2 4 5 6 9 14 4
10 7 8 14 14 15 14 13 14 15 12 10 8 7 7 8 11 11 14 11 10 10 10 10 10 10 10 9 8 7 5 5 5 6 5 5 4 8 10 9 9 14 17
9 7 10 13 15 14 13 13 16 14 12 10 9 7 5 13 12 14 14 10 9 9 9 9 9 8 8 7 6 6 5 8 8 5 4 6 4 11 13 12 12 14 13
9 7 9 13 13 13 12 13 15 14 13 12 12 7 6 13 13 12 13 8 8 8 7 7 7 7 6 6 6 6 7 8 5 4 4 4 4 9 10 12 10 10 8
9 7 8 11 12 11 11 15 14 13 13 13 13 10 7 11 9 10 10 7 6 6 6 5 5 5 5 5 6 5 7 6 4 3 3 3 4 6 8 8 9 9 8
5 6 6 6 8 10 11 13 13 12 11 12 11 10 9 9 10 8 7 5 5 5 4 3 3 4 4 5 6 7 6 5 3 2 2 2 5 3 7 6 7 7 7
5 5 6 5 6 6 6 12 13 12 10 11 10 8 8 6 6 9 6 4 5 5 4 3 2 3 5 6 6 7 6 6 2 1 2 2 5 3 7 5 5 5 5
3 4 5 5 5 6 6 6 11 11 9 9 8 8 6 3 3 2 4 4 4 6 5 4 3 3 4 4 5 5 5 1 1 1 2 6 6 7 9 5 3 2 3
5 4 5 5 5 5 4 4 5 6 4 4 5 5 4 4 3 4 3 4 4 4 5 3 1 1 4 2 2 3 1 1 1 2 2 8 8 8 7 5 3 1 2
4 4 5 5 5 5 4 3 2 3 3 3 5 4 4 3 2 2 1 1 2 2 1 1 1 1 1 1 0 0 1 1 1 2 4 8 9 6 6 4 3 3 2
7 7 6 6 5 5 3 3 4 3 3 3 4 5 4 3 3 3 2 3 3 2 3 2 1 2 3 2 2 2 3 2 2 2 4 7 9 6 6 5 5 5 5
6 7 7 6 6 5 5 4 4 4 3 4 4 5 4 4 4 3 3 3 3 3 3 3 3 3 4 3 3 4 4 4 4 3 3 7 8 7 8 7 8 8 7
7 7 6 7 6 6 5 5 4 4 4 4 4 5 6 4 4 4 4 4 4 4 3 3 4 4 4 3 5 5 6 4 5 5 4 4 8 9 9 10 10 9 9
5 7 8 8 6 6 6 6 4 4 4 4 5 6 7 6 5 5 4 4 5 4 5 3 4 3 3 3 5 5 4 6 5 6 5 4 5 9 10 13 12 11 11
5 7 7 6 7 7 7 5 4 4 4 4 4 4 6 7 7 5 4 4 4 4 4 4 4 3 4 4 3 5 4 4 6 6 4 4 4 4 7 13 13 14 13
8 5 6 6 7 7 6 4 4 5 4 4 4 4 6 7 8 7 5 5 5 4 4 4 4 4 4 4 5 5 5 5 6 4 7 6 7 6 5 9 12 12 12
5 5 5 5 6 6 4 3 3 3 4 4 5 5 6 6 7 7 5 6 5 4 5 4 6 4 5 5 3 5 4 5 5 5 6 6 7 8 7 7 5 7 12
3 5 5 6 4 4 2 3 2 4 3 4 5 6 6 6 6 6 5 4 5 7 8 7 4 7 4 3 1 3 4 6 7 7 5 6 6 6 6 6 6 4 5
4 4 6 6 4 2 2 1 2 2 2 1 2 4 6 6 6 6 6 6 6 5 5 6 6 3 3 5 3 1 3 2 4 7 4 4 6 4 5 6 6 6 5
4 4 5 5 5 3 3 2 2 1 1 1 0 1 1 4 4 5 6 5 5 5 6 6 6 8 7 3 5 4 1 5 2 1 2 3 3 3 3 4 5 6 7
5 5 6 6 5 4 4 3 2 2 1 1 1 2 4 4 4 3 4 4 5 4 6 6 5 6 4 6 1 5 3 2 2 3 2 2 2 5 5 4 4 5 7
6 5 6 7 6 6 6 5 3 3 0 2 2 4 3 2 3 3 4 4 5 4 6 6 5 5 5 4 4 3 3 2 1 3 5 3 1 3 4 4 5 5 6
4 5 6 7 6 6 6 6 5 3 2 2 2 3 4 3 3 5 5 5 5 5 5 6 5 6 6 6 5 4 4 4 3 3 4 4 4 2 1 2 4 4 3
Wind_Direction
193 168 153 153 148 143 138 134 129 122 117 110 108 103 100 95 95 99 103 100 93 91 90 87 91 87 81 83 86 86 84 83 80 76 63 63 77 79 82 71 48 345 160
145 156 154 155 150 146 143 141 132 130 127 124 114 106 105 106 111 113 103 102 98 95 94 93 91 89 88 93 91 89 88 88 84 75 65 52 68 79 79 68 55 35 105
146 152 154 155 153 150 142 136 133 138 127 122 115 114 118 118 123 122 113 106 99 96 99 94 93 94 97 99 99 95 90 88 79 61 54 39 70 83 86 72 56 45 62
142 143 154 155 154 148 141 145 141 133 121 119 120 128 129 132 132 128 116 109 100 101 100 97 97 103 107 105 98 90 82 79 76 49 31 30 321 90 103 72 52 49 124
138 140 156 150 149 141 146 146 143 129 125 123 126 127 137 145 143 136 118 109 107 107 103 101 102 107 107 98 89 74 57 71 79 56 34 26 36 61 111 72 60 48 48
133 132 155 145 142 144 145 144 137 135 133 132 124 125 139 134 137 131 117 114 112 112 112 108 105 105 100 91 76 58 72 91 80 53 37 34 29 77 76 63 48 57 41
142 134 138 145 145 145 150 148 140 142 141 137 122 132 110 118 119 129 110 119 118 122 121 111 107 104 97 87 73 46 109 95 84 52 38 33 358 63 62 46 38 46 43
147 141 143 150 148 147 152 142 145 147 149 137 134 140 120 129 114 109 119 132 130 129 128 117 104 97 90 86 71 51 130 109 81 68 33 18 6 58 59 55 48 48 45
135 131 134 142 148 149 146 150 153 155 154 140 144 152 149 124 129 132 138 145 143 135 134 118 92 75 67 61 63 64 98 91 85 66 26 346 320 78 89 61 44 41 48
135 142 150 149 150 153 159 170 163 152 152 145 148 144 132 137 148 146 148 168 163 152 142 126 89 51 47 47 52 60 64 72 79 32 331 294 291 147 97 75 31 35 35
131 150 154 156 161 156 165 178 158 149 154 148 147 146 128 123 135 160 159 191 185 167 169 167 156 122 104 92 82 85 70 53 22 286 287 282 278 183 132 114 97 65 52
169 177 167 155 150 131 132 116 129 135 145 145 147 145 132 151 161 158 184 206 209 194 180 190 186 81 66 39 25 39 41 6 274 256 266 276 261 206 141 130 118 82 51
171 164 176 162 152 151 130 122 107 122 140 152 160 150 150 154 175 162 170 220 221 234 201 189 43 87 192 167 233 62 278 311 268 268 270 272 265 184 138 148 167 177 195
174 182 177 173 163 165 139 149 148 151 162 174 181 169 163 171 188 197 198 214 218 215 215 212 219 250 269 268 259 272 263 264 253 254 267 274 253 197 196 221 202 202 209
188 185 187 175 180 176 171 161 165 185 181 184 181 185 172 183 197 194 216 215 218 212 211 222 227 235 246 255 264 256 258 247 249 253 242 263 247 232 227 214 213 211 217
195 200 186 194 188 173 187 187 195 183 194 188 192 194 188 190 197 200 208 220 226 211 213 218 222 229 245 239 266 258 260 248 246 247 243 245 246 243 229 225 221 222 225
205 198 190 195 189 183 194 199 193 202 189 202 210 191 193 194 205 206 208 213 222 210 219 222 234 229 246 243 258 261 256 252 249 249 246 234 243 242 235 232 230 230 237
200 206 193 190 181 187 195 197 193 194 195 209 208 199 200 202 202 207 212 222 218 204 205 215 217 236 235 228 243 251 246 245 245 240 241 241 228 229 235 231 232 232 230
211 195 204 191 185 196 204 193 194 206 205 214 208 211 214 207 205 205 213 225 201 207 208 218 223 208 226 233 240 251 250 247 240 223 227 231 229 224 220 232 231 230 229
220 210 195 193 189 182 168 168 190 211 222 210 216 216 216 218 210 205 218 217 187 203 222 203 221 206 232 243 233 252 245 248 242 233 240 229 223 220 215 217 226 233 229
140 156 173 179 188 158 149 162 203 214 197 220 217 220 214 214 218 212 225 212 197 207 224 210 205 228 245 180 352 269 262 232 235 237 221 234 235 227 221 218 222 221 231
133 126 121 125 137 166 144 158 166 160 208 221 212 228 228 221 215 207 208 219 202 217 221 211 190 197 228 174 190 170 285 314 253 243 232 235 242 211 224 224 221 219 218
131 130 115 106 103 104 126 122 93 67 26 332 235 266 289 270 251 226 225 224 215 201 225 218 201 202 238 198 206 202 242 233 346 268 241 244 266 232 237 218 216 219 213
154 126 111 99 86 66 56 76 93 126 193 277 293 304 314 340 334 306 265 246 238 212 217 225 210 215 196 237 192 239 273 84 230 297 310 267 224 238 227 228 224 230 227
142 131 112 97 76 62 65 79 95 96 85 316 322 340 348 354 7 12 3 327 277 245 246 225 220 217 200 223 197 159 215 139 135 226 284 269 327 239 225 222 225 226 224
122 117 107 93 72 60 61 55 69 69 13 357 340 343 341 345 1 17 2 1 342 300 271 264 235 215 212 218 210 179 176 180 197 197 231 249 235 291 291 248 222 232 220